"Pseudo-MPEC" for C1C7FZ5

Created 2026 Mar 22 8:35:06 UT using Find_Orb

Click here for an explanation of pseudo-MPECs

 
 Astrometry: 
     C1C7FZ5*1C2026 02 23.42839110 52 41.855+31 15 19.69   ~2NB5 22.78GVNEOCPV00
     C1C7FZ5 1C2026 02 23.43398810 52 40.642+31 15 08.28   ~2NB5 22.97GVNEOCPV00
     C1C7FZ5 1C2026 02 23.43957210 52 39.428+31 14 57.44   ~2NB5 22.77GVNEOCPV00
     C1C7FZ5 1C2026 02 23.44514910 52 38.161+31 14 47.15   ~2NB5 22.71GVNEOCPV00
     C1C7FZ5 1C2026 02 23.51699410 52 22.760+31 12 20.60   ~2NCo       VNEOCPV00
     C1C7FZ5 1C2026 02 23.51796310 52 22.530+31 12 18.30   ~2NCo       VNEOCPV00
     C1C7FZ5 1C2026 02 23.51893110 52 22.357+31 12 16.56   ~2NCo 22.78GVNEOCPV00
     C1C7FZ5 1C2026 02 23.51989910 52 22.160+31 12 14.70   ~2NCo       VNEOCPV00
     C1C7FZ5 1C2026 02 26.35319610 42 29.495+29 33 42.34   ~2Q9Z 22.46GVNEOCPV00
     C1C7FZ5 1C2026 02 26.35416710 42 29.315+29 33 40.21   ~2Q9Z 23.02GVNEOCPV00
     C1C7FZ5 1C2026 02 26.35513810 42 29.095+29 33 37.87   ~2Q9Z 22.27GVNEOCPV00
     C1C7FZ5 1C2026 02 26.35610710 42 28.883+29 33 36.00   ~2Q9Z 22.81GVNEOCPV00

Station data:
(V00) Kitt Peak-Bok  (N31.963125 W111.600190)  US/Arizona. Measurers T.
   Beuden, V. F. Carvajal, D. Fay, J. B. Fazekas, D. C. Fuls, A. R. Gibbs, A.
   D. Grauer, H. Gröller, J. K. Hogan, R. A. Kowalski, S. M. Larson, G. J.
   Leonard, D. Rankin, R. L. Seaman, F. C. Shelly, K. W. Wierzchoś. 2.25-m
   reflector + 4x4K mosaic CCD.

Orbital elements:  C1C7FZ5
   Perihelion 2026 Jan 18.307066 +/- 42 TT =  7:22:10.5 (JD 2461058.807066)
Epoch 2026 Feb 26.0 TT = JDT 2461097.5   Earth MOID: 0.4611      AutoNEOCP
M  18.390704492 +/- 22              (J2000 ecliptic)
n   0.475298788 +/- 0.131           Peri.  142.239976 +/- 28
a   1.626141166 +/- 0.299           Node   347.751807 +/- 1.9
e   0.12368373 +/- 0.083            Incl.   27.246306 +/- 8
P   2.074/757.404d         H 23.04  G  0.15   U 11.4  SR
q 1.425013958 +/- 0.148    Q 1.827268374 +/- 0.613
From 12 observations 2026 Feb. 23-26; mean residual 0".53
Residuals in arcseconds: 
260223 V00  .47-  .92-    260223 V00  .55+  .58+    260226 V00  .20-  .05+    
260223 V00  .39-  1.0-    260223 V00  .26+  .26+    260226 V00  .17+  .03+    
260223 V00  .37-  .51-    260223 V00  .71+  .51+    260226 V00  .01+  .19-    
260223 V00  1.1-  .52+    260223 V00  .85+  .63+    260226 V00  .04-  .05+    

Ephemerides (geocentric):
Date (UTC) HH   RA             Dec           delta  r     elong  mag " sig PA
---- --------  ------------   ------------  ------ ------ -----  --- --------
2026 03 22 09  09 40 35.199   +13 27 03.11  .54080 1.4593 141.6 23.7 7400 150
2026 03 22 10  09 40 31.495   +13 25 27.70  .54104 1.4593 141.5 23.7 7418 150
2026 03 22 11  09 40 27.800   +13 23 52.34  .54129 1.4593 141.5 23.7 7436 150
2026 03 22 12  09 40 24.116   +13 22 17.04  .54153 1.4594 141.4 23.7 7454 150
2026 03 22 13  09 40 20.441   +13 20 41.80  .54178 1.4594 141.4 23.7 7472 150
2026 03 22 14  09 40 16.775   +13 19 06.62  .54202 1.4595 141.3 23.7 7490 150
2026 03 22 15  09 40 13.120   +13 17 31.49  .54227 1.4595 141.3 23.7 7508 150
2026 03 22 16  09 40 09.474   +13 15 56.41  .54252 1.4596 141.2 23.7 7526 150
2026 03 22 17  09 40 05.838   +13 14 21.40  .54276 1.4596 141.2 23.7 7544 150
2026 03 22 18  09 40 02.211   +13 12 46.43  .54301 1.4597 141.1 23.7 7563 150
2026 03 22 19  09 39 58.594   +13 11 11.53  .54326 1.4597 141.1 23.7 7581 150
2026 03 22 20  09 39 54.986   +13 09 36.68  .54350 1.4597 141.0 23.7 7599 150
2026 03 22 21  09 39 51.388   +13 08 01.89  .54375 1.4598 141.0 23.7 7617 150
2026 03 22 22  09 39 47.800   +13 06 27.16  .54400 1.4598 141.0 23.7 7635 150
2026 03 22 23  09 39 44.222   +13 04 52.48  .54425 1.4599 140.9 23.7 7653 150
2026 03 23 00  09 39 40.653   +13 03 17.86  .54450 1.4599 140.9 23.7 7671 150
2026 03 23 01  09 39 37.093   +13 01 43.30  .54475 1.4600 140.8 23.7 7689 150
2026 03 23 02  09 39 33.543   +13 00 08.80  .54500 1.4600 140.8 23.7 7707 150
2026 03 23 03  09 39 30.003   +12 58 34.35  .54525 1.4600 140.7 23.7 7725 150
2026 03 23 04  09 39 26.472   +12 56 59.96  .54550 1.4601 140.7 23.7 7743 150
2026 03 23 05  09 39 22.951   +12 55 25.63  .54575 1.4601 140.6 23.7 7761 150
2026 03 23 06  09 39 19.439   +12 53 51.35  .54600 1.4602 140.6 23.7 7779 150
2026 03 23 07  09 39 15.937   +12 52 17.13  .54625 1.4602 140.5 23.7 7797 151
2026 03 23 08  09 39 12.445   +12 50 42.97  .54650 1.4603 140.5 23.7 7815 151
2026 03 23 09  09 39 08.962   +12 49 08.87  .54676 1.4603 140.4 23.7 7833 151
2026 03 23 10  09 39 05.489   +12 47 34.83  .54701 1.4604 140.4 23.7 7851 151
2026 03 23 11  09 39 02.025   +12 46 00.84  .54726 1.4604 140.3 23.7 7869 151
2026 03 23 12  09 38 58.570   +12 44 26.91  .54751 1.4604 140.3 23.7 7887 151
2026 03 23 13  09 38 55.125   +12 42 53.04  .54777 1.4605 140.2 23.7 7905 151
2026 03 23 14  09 38 51.690   +12 41 19.23  .54802 1.4605 140.2 23.7 7923 151
2026 03 23 15  09 38 48.264   +12 39 45.48  .54828 1.4606 140.2 23.7 7941 151
2026 03 23 16  09 38 44.848   +12 38 11.78  .54853 1.4606 140.1 23.7 7959 151
2026 03 23 17  09 38 41.441   +12 36 38.15  .54879 1.4607 140.1 23.7 7977 151
2026 03 23 18  09 38 38.043   +12 35 04.57  .54904 1.4607 140.0 23.7 7995 151
2026 03 23 19  09 38 34.655   +12 33 31.05  .54930 1.4607 140.0 23.7 8013 151
2026 03 23 20  09 38 31.277   +12 31 57.59  .54955 1.4608 139.9 23.7 8031 151
2026 03 23 21  09 38 27.908   +12 30 24.18  .54981 1.4608 139.9 23.7 8048 151
2026 03 23 22  09 38 24.548   +12 28 50.84  .55006 1.4609 139.8 23.7 8066 151
2026 03 23 23  09 38 21.198   +12 27 17.56  .55032 1.4609 139.8 23.8 8084 151
2026 03 24 00  09 38 17.857   +12 25 44.33  .55058 1.4610 139.7 23.8 8102 151
2026 03 24 01  09 38 14.526   +12 24 11.16  .55084 1.4610 139.7 23.8 8120 151
2026 03 24 02  09 38 11.204   +12 22 38.06  .55109 1.4611 139.6 23.8 8138 151
2026 03 24 03  09 38 07.892   +12 21 05.01  .55135 1.4611 139.6 23.8 8156 151
2026 03 24 04  09 38 04.589   +12 19 32.02  .55161 1.4611 139.5 23.8 8174 151
2026 03 24 05  09 38 01.295   +12 17 59.09  .55187 1.4612 139.5 23.8 8191 151
2026 03 24 06  09 37 58.011   +12 16 26.22  .55213 1.4612 139.5 23.8 8209 151
2026 03 24 07  09 37 54.736   +12 14 53.41  .55239 1.4613 139.4 23.8 8227 151
2026 03 24 08  09 37 51.470   +12 13 20.66  .55265 1.4613 139.4 23.8 8245 151